| time (UTC) | temp C | wind direction | speed KPH | gust KPH | rain 1hr cm | rain 24hr cm | rain mn cm | humidity % | barometer mb |
| 20260904101654 | 16 | 207 | 3.2 | 9.7 | 0.28 | 0.51 | 0.36 | 91 | 1001.5 |
| 20260904100058 | 16 | 224 | 0.0 | 6.4 | 0.13 | 0.36 | 0.20 | 91 | 1001.7 |
| 20260904094548 | 16 | 234 | 4.8 | 16.1 | 0.05 | 0.33 | 0.13 | 90 | 1001.9 |
| 20260904093148 | 16 | 211 | 6.4 | 12.9 | 0.00 | 0.28 | 0.08 | 90 | 1002.2 |
| 20260904091558 | 16 | 200 | 8.0 | 14.5 | 0.03 | 0.28 | 0.08 | 90 | 1002.6 |
| 20260904090036 | 16 | 223 | 4.8 | 12.9 | 0.03 | 0.28 | 0.08 | 91 | 1002.6 |
| 20260904084531 | 16 | 214 | 9.7 | 14.5 | 0.05 | 0.30 | 0.08 | 91 | 1002.9 |
| 20260904083040 | 15 | 198 | 6.4 | 11.3 | 0.05 | 0.30 | 0.08 | 91 | 1003.2 |
| 20260904081526 | 15 | 223 | 4.8 | 11.3 | 0.03 | 0.28 | 0.05 | 91 | 1003.3 |
| 20260904080025 | 15 | 188 | 4.8 | 12.9 | 0.05 | 0.28 | 0.05 | 91 | 1003.3 |
| 20260904074525 | 15 | 211 | 1.6 | 9.7 | 0.03 | 0.28 | 0.05 | 90 | 1003.5 |
| 20260904073026 | 15 | 198 | 3.2 | 8.0 | 0.03 | 0.28 | 0.05 | 90 | 1003.5 |
| 20260904071520 | 15 | 196 | 4.8 | 9.7 | 0.03 | 0.28 | 0.05 | 90 | 1003.7 |
| 20260904070017 | 15 | 208 | 3.2 | 9.7 | 0.00 | 0.25 | 0.03 | 90 | 1003.9 |
| 20260904064514 | 15 | 205 | 4.8 | 9.7 | 0.00 | 0.30 | 0.03 | 90 | 1004.4 |
| 20260904063022 | 14 | 205 | 3.2 | 8.0 | 0.03 | 0.30 | 0.03 | 89 | 1004.4 |
| 20260904061510 | 14 | 219 | 1.6 | 8.0 | 0.03 | 0.30 | 0.03 | 89 | 1004.5 |
| 20260904060009 | 14 | 219 | 4.8 | 8.0 | 0.03 | 0.30 | 0.03 | 88 | 1004.9 |
| 20260904054505 | 14 | 219 | 3.2 | 8.0 | 0.03 | 0.33 | 0.03 | 87 | 1005.0 |
| 20260904053003 | 14 | 226 | 1.6 | 6.4 | 0.00 | 0.30 | 0.00 | 86 | 1005.2 |
| 20260904051501 | 15 | 224 | 4.8 | 8.0 | 0.00 | 0.30 | 0.00 | 85 | 1005.4 |
| 20260904050100 | 15 | 240 | 3.2 | 8.0 | 0.00 | 0.30 | 0.00 | 85 | 1005.6 |
| 20260904044557 | 15 | 234 | 3.2 | 11.3 | 0.00 | 0.30 | 0.00 | 84 | 1005.4 |
| 20260904043056 | 15 | 211 | 3.2 | 9.7 | 0.00 | 0.30 | 0.00 | 84 | 1005.6 |
| 20260904041553 | 15 | 240 | 4.8 | 9.7 | 0.00 | 0.30 | 0.00 | 84 | 1005.7 |
| 20260904034553 | 15 | 234 | 6.4 | 16.1 | 0.00 | 0.33 | 0.00 | 84 | 1006.0 |
| 20260904033046 | 15 | 223 | 3.2 | 14.5 | 0.00 | 0.33 | 0.00 | 84 | 1006.1 |
| 20260904031545 | 15 | 216 | 6.4 | 14.5 | 0.00 | 0.33 | 0.00 | 83 | 1006.4 |
| 20260904030042 | 15 | 242 | 3.2 | 9.7 | 0.00 | 0.33 | 0.00 | 83 | 1006.4 |
| 20260904024547 | 15 | 252 | 4.8 | 14.5 | 0.00 | 0.33 | 0.00 | 83 | 1006.3 |
| 20260904023049 | 15 | 225 | 4.8 | 14.5 | 0.00 | 0.33 | 0.00 | 83 | 1006.4 |
| 20260904021537 | 15 | 217 | 4.8 | 16.1 | 0.00 | 0.33 | 0.00 | 83 | 1006.5 |
| 20260904020037 | 15 | 256 | 4.8 | 16.1 | 0.00 | 0.33 | 0.00 | 83 | 1006.8 |
| 20260904014541 | 15 | 217 | 4.8 | 11.3 | 0.00 | 0.33 | 0.00 | 83 | 1006.7 |
| 20260904013038 | 16 | 226 | 4.8 | 14.5 | 0.00 | 0.33 | 0.00 | 83 | 1006.6 |
| 20260904011536 | 16 | 232 | 3.2 | 16.1 | 0.00 | 0.33 | 0.00 | 84 | 1006.9 |
| 20260904010039 | 16 | 293 | 1.6 | 14.5 | 0.00 | 0.33 | 0.00 | 84 | 1006.9 |
| 20260904004529 | 16 | 238 | 4.8 | 17.7 | 0.00 | 0.33 | 0.00 | 84 | 1007.1 |
| 20260904003033 | 16 | 231 | 3.2 | 17.7 | 0.00 | 0.33 | 0.00 | 84 | 1007.1 |
| 20260904001528 | 16 | 236 | 4.8 | 19.3 | 0.00 | 0.33 | 0.00 | 84 | 1007.1 |
| 20260904000025 | 16 | 223 | 4.8 | 12.9 | 0.00 | 0.33 | 0.00 | 83 | 1007.1 |
| 20260903234523 | 16 | 263 | 4.8 | 14.5 | 0.00 | 0.33 | 0.00 | 83 | 1007.3 |
| 20260903233022 | 16 | 229 | 6.4 | 12.9 | 0.00 | 0.33 | 0.00 | 84 | 1007.2 |
| 20260903231530 | 16 | 240 | 6.4 | 14.5 | 0.00 | 0.33 | 0.00 | 85 | 1007.2 |
| 20260903230025 | 16 | 236 | 6.4 | 14.5 | 0.00 | 0.33 | 0.00 | 85 | 1007.4 |
| 20260903224531 | 16 | 237 | 3.2 | 19.3 | 0.00 | 0.33 | 0.00 | 86 | 1007.4 |
| 20260903223015 | 16 | 229 | 6.4 | 19.3 | 0.00 | 0.33 | 0.00 | 86 | 1007.5 |
| 20260903221512 | 16 | 223 | 4.8 | 19.3 | 0.00 | 0.33 | 0.00 | 87 | 1007.7 |
| 20260903220010 | 16 | 257 | 3.2 | 11.3 | 0.00 | 0.33 | 0.00 | 87 | 1007.7 |
| 20260903214524 | 16 | 219 | 4.8 | 12.9 | 0.00 | 0.33 | 0.33 | 87 | 1007.4 |
| 20260903213006 | 16 | 225 | 6.4 | 17.7 | 0.00 | 0.33 | 0.33 | 87 | 1007.4 |
| 20260903211528 | 16 | 288 | 3.2 | 14.5 | 0.00 | 0.33 | 0.33 | 87 | 1007.5 |
| 20260903210007 | 16 | 206 | 4.8 | 14.5 | 0.00 | 0.33 | 0.33 | 87 | 1007.5 |
| 20260903204526 | 16 | 240 | 4.8 | 11.3 | 0.00 | 0.33 | 0.33 | 86 | 1007.6 |
| 20260903203006 | 16 | 313 | 1.6 | 11.3 | 0.00 | 0.33 | 0.33 | 84 | 1007.6 |
| 20260903201505 | 17 | 234 | 4.8 | 17.7 | 0.00 | 0.33 | 0.33 | 84 | 1007.6 |
| 20260903200005 | 17 | 300 | 4.8 | 17.7 | 0.00 | 0.33 | 0.33 | 84 | 1007.3 |
| 20260903194543 | 17 | 235 | 6.4 | 22.5 | 0.00 | 0.33 | 0.33 | 83 | 1007.4 |
| 20260903193148 | 17 | 162 | 6.4 | 16.1 | 0.00 | 0.33 | 0.33 | 85 | 1007.4 |
| 20260903191554 | 17 | 194 | 3.2 | 20.9 | 0.00 | 0.33 | 0.33 | 85 | 1007.3 |
| 20260903190044 | 17 | 221 | 4.8 | 20.9 | 0.00 | 0.33 | 0.33 | 85 | 1007.2 |
| 20260903184542 | 17 | 240 | 6.4 | 19.3 | 0.00 | 0.33 | 0.33 | 85 | 1007.2 |
| 20260903183145 | 18 | 244 | 11.3 | 22.5 | 0.00 | 0.33 | 0.33 | 86 | 1007.2 |
| 20260903181541 | 18 | 244 | 3.2 | 17.7 | 0.00 | 0.33 | 0.33 | 86 | 1006.9 |
| 20260903180044 | 18 | 240 | 4.8 | 12.9 | 0.00 | 0.33 | 0.33 | 86 | 1006.8 |
| 20260903174645 | 18 | 219 | 8.0 | 14.5 | 0.00 | 0.41 | 0.33 | 86 | 1006.6 |
| 20260903173050 | 18 | 253 | 6.4 | 14.5 | 0.00 | 0.41 | 0.33 | 86 | 1006.6 |
| 20260903171641 | 18 | 238 | 11.3 | 19.3 | 0.00 | 0.41 | 0.33 | 85 | 1006.5 |
| 20260903170059 | 19 | 207 | 6.4 | 16.1 | 0.00 | 0.41 | 0.33 | 86 | 1006.5 |
| 20260903164546 | 19 | 221 | 9.7 | 17.7 | 0.00 | 0.43 | 0.33 | 86 | 1006.4 |
| 20260903163143 | 19 | 238 | 6.4 | 24.1 | 0.00 | 0.43 | 0.33 | 85 | 1006.4 |
| 20260903161559 | 19 | 258 | 11.3 | 24.1 | 0.00 | 0.43 | 0.33 | 86 | 1006.4 |
| 20260903160128 | 19 | 200 | 6.4 | 19.3 | 0.00 | 0.43 | 0.33 | 87 | 1006.4 |
| 20260903154605 | 19 | 240 | 4.8 | 16.1 | 0.00 | 0.53 | 0.33 | 88 | 1006.5 |
| 20260903153148 | 18 | 227 | 4.8 | 16.1 | 0.00 | 0.53 | 0.33 | 89 | 1006.5 |
| 20260903151541 | 18 | 221 | 6.4 | 19.3 | 0.00 | 0.53 | 0.33 | 90 | 1006.5 |
| 20260903150147 | 18 | 205 | 6.4 | 14.5 | 0.00 | 0.53 | 0.33 | 90 | 1006.5 |
| 20260903144602 | 18 | 213 | 8.0 | 16.1 | 0.00 | 0.71 | 0.33 | 91 | 1006.7 |
| 20260903143153 | 18 | 233 | 4.8 | 16.1 | 0.00 | 0.71 | 0.33 | 92 | 1006.7 |
| 20260903141550 | 17 | 215 | 6.4 | 17.7 | 0.00 | 0.71 | 0.33 | 91 | 1006.9 |
| 20260903140049 | 18 | 219 | 4.8 | 16.1 | 0.03 | 0.71 | 0.33 | 91 | 1006.9 |
| 20260903134641 | 18 | 223 | 8.0 | 16.1 | 0.05 | 0.71 | 0.33 | 91 | 1006.9 |
| 20260903133046 | 17 | 212 | 9.7 | 20.9 | 0.05 | 0.71 | 0.33 | 92 | 1006.9 |
| 20260903131544 | 17 | 217 | 9.7 | 17.7 | 0.05 | 0.71 | 0.33 | 92 | 1007.0 |
| 20260903130001 | 17 | 215 | 8.0 | 14.5 | 0.03 | 0.71 | 0.28 | 92 | 1007.1 |
| 20260903124553 | 17 | 200 | 6.4 | 14.5 | 0.00 | 0.69 | 0.25 | 92 | 1007.2 |
| 20260903123005 | 17 | 218 | 6.4 | 16.1 | 0.03 | 0.69 | 0.25 | 92 | 1007.3 |
| 20260903121608 | 16 | 191 | 6.4 | 19.3 | 0.05 | 0.69 | 0.25 | 92 | 1007.4 |
| 20260903120044 | 16 | 209 | 8.0 | 16.1 | 0.08 | 0.69 | 0.25 | 92 | 1007.4 |
| 20260903114545 | 16 | 213 | 9.7 | 20.9 | 0.10 | 0.69 | 0.25 | 92 | 1007.7 |
| 20260903113002 | 16 | 185 | 8.0 | 19.3 | 0.08 | 0.66 | 0.23 | 92 | 1007.9 |
| 20260903111603 | 16 | 226 | 9.7 | 16.1 | 0.05 | 0.64 | 0.23 | 92 | 1008.1 |
| 20260903110047 | 16 | 192 | 8.0 | 24.1 | 0.03 | 0.61 | 0.18 | 92 | 1008.3 |
| 20260903104515 | 16 | 214 | 8.0 | 17.7 | 0.00 | 0.58 | 0.15 | 92 | 1008.5 |
| 20260903103102 | 16 | 190 | 4.8 | 17.7 | 0.03 | 0.58 | 0.15 | 93 | 1008.6 |